• In Uzbekistan
  • List of Countries
  • For 7 days
  • Water Temperature
  • Satellite Maps
  • Weather Map
  • Weather Widgets
  • user-avatar
    Login

    Hourly Weather Mendoza

    Today, 21 October, Sunday

    Time Temperature Precipitation Wind Pressure Humidity
    00:00 +19°C° 0 mm 3 mps 697 mmHg 59%
    01:00 +19°C° 0 mm 3 mps 697 mmHg 63%
    02:00 +18°C° 0.1 mm 3 mps 697 mmHg 63%
    03:00 +18°C° 0.1 mm 3 mps 697 mmHg 63%
    04:00 +18°C° 0.1 mm 4 mps 697 mmHg 63%
    05:00 +18°C° 0.1 mm 4 mps 697 mmHg 61%
    06:00 +19°C° 0.1 mm 4 mps 697 mmHg 60%
    07:00 +19°C° 0.1 mm 4 mps 698 mmHg 59%
    08:00 +20°C° 0 mm 4 mps 698 mmHg 58%
    09:00 +21°C° 0 mm 4 mps 698 mmHg 57%
    10:00 +22°C° 0 mm 4 mps 698 mmHg 56%
    11:00 +23°C° 0 mm 4 mps 697 mmHg 53%
    12:00 +25°C° 0 mm 4 mps 697 mmHg 51%
    13:00 +26°C° 0 mm 4 mps 697 mmHg 49%
    14:00 +26°C° 0 mm 4 mps 697 mmHg 48%
    15:00 +26°C° 0 mm 4 mps 697 mmHg 48%
    16:00 +26°C° 0 mm 5 mps 697 mmHg 48%
    17:00 +23°C° 0.1 mm 5 mps 697 mmHg 53%
    18:00 +22°C° 0.1 mm 5 mps 697 mmHg 58%
    19:00 +21°C° 0.1 mm 5 mps 698 mmHg 63%
    20:00 +21°C° 0.1 mm 4 mps 698 mmHg 65%
    21:00 +20°C° 0.1 mm 4 mps 698 mmHg 67%
    22:00 +20°C° 0.1 mm 4 mps 698 mmHg 69%
    23:00 +19°C° 0.1 mm 4 mps 698 mmHg 71%

    Tomorrow, 22 October, Monday

    Time Temperature Precipitation Wind Pressure Humidity
    00:00 +19°C° 0.1 mm 4 mps 697 mmHg 72%
    01:00 +18°C° 0.1 mm 4 mps 697 mmHg 74%
    02:00 +18°C° 0.1 mm 4 mps 697 mmHg 75%
    03:00 +18°C° 0.1 mm 4 mps 697 mmHg 76%
    04:00 +17°C° 0.1 mm 4 mps 697 mmHg 77%
    05:00 +17°C° 0.1 mm 4 mps 697 mmHg 77%
    06:00 +16°C° 0.1 mm 5 mps 698 mmHg 77%
    07:00 +16°C° 0.1 mm 5 mps 698 mmHg 78%
    08:00 +17°C° 0.1 mm 5 mps 698 mmHg 76%
    09:00 +17°C° 0.1 mm 5 mps 698 mmHg 75%
    10:00 +17°C° 0.1 mm 5 mps 698 mmHg 73%
    11:00 +19°C° 0.1 mm 5 mps 698 mmHg 69%
    12:00 +19°C° 0.1 mm 5 mps 698 mmHg 66%
    13:00 +20°C° 0.1 mm 5 mps 698 mmHg 62%
    14:00 +20°C° 0 mm 5 mps 698 mmHg 62%
    15:00 +20°C° 0 mm 4 mps 698 mmHg 61%
    16:00 +20°C° 0 mm 4 mps 697 mmHg 61%
    17:00 +19°C° 0 mm 4 mps 698 mmHg 63%
    18:00 +18°C° 0 mm 4 mps 699 mmHg 65%
    19:00 +18°C° 0 mm 4 mps 699 mmHg 67%
    20:00 +17°C° 0 mm 4 mps 699 mmHg 69%
    21:00 +17°C° 0 mm 4 mps 700 mmHg 71%
    22:00 +15°C° 0 mm 4 mps 700 mmHg 73%
    23:00 +14°C° 0 mm 4 mps 699 mmHg 74%

    Day after tomorrow, 23 October, Tuesday

    Time Temperature Precipitation Wind Pressure Humidity
    00:00 +14°C° 0 mm 4 mps 699 mmHg 75%
    01:00 +14°C° 0 mm 4 mps 699 mmHg 76%
    02:00 +14°C° 0 mm 4 mps 698 mmHg 75%
    03:00 +13°C° 0 mm 4 mps 698 mmHg 74%
    04:00 +13°C° 0 mm 4 mps 698 mmHg 74%
    05:00 +14°C° 0 mm 4 mps 698 mmHg 72%
    06:00 +14°C° 0 mm 4 mps 698 mmHg 70%
    07:00 +14°C° 0 mm 5 mps 699 mmHg 68%
    08:00 +15°C° 0 mm 5 mps 699 mmHg 65%
    09:00 +16°C° 0 mm 5 mps 698 mmHg 61%
    10:00 +17°C° 0 mm 5 mps 698 mmHg 58%
    11:00 +19°C° 0 mm 4 mps 698 mmHg 54%
    12:00 +20°C° 0 mm 4 mps 697 mmHg 50%
    13:00 +21°C° 0 mm 4 mps 697 mmHg 47%
    14:00 +21°C° 0 mm 4 mps 696 mmHg 47%
    15:00 +21°C° 0 mm 4 mps 696 mmHg 46%
    16:00 +22°C° 0 mm 4 mps 696 mmHg 46%
    17:00 +21°C° 0 mm 3 mps 696 mmHg 50%
    18:00 +20°C° 0 mm 3 mps 697 mmHg 55%
    19:00 +19°C° 0 mm 3 mps 697 mmHg 59%
    20:00 +18°C° 0 mm 3 mps 697 mmHg 62%
    21:00 +17°C° 0 mm 4 mps 698 mmHg 66%
    22:00 +17°C° 0 mm 4 mps 698 mmHg 69%
    23:00 +15°C° 0 mm 4 mps 697 mmHg 69%

    24 October, Wednesday

    Time Temperature Precipitation Wind Pressure Humidity
    00:00 +15°C° 0 mm 4 mps 697 mmHg 69%
    01:00 +15°C° 0 mm 4 mps 697 mmHg 69%
    02:00 +14°C° 0 mm 4 mps 697 mmHg 68%
    03:00 +14°C° 0 mm 4 mps 697 mmHg 67%
    04:00 +14°C° 0 mm 4 mps 697 mmHg 66%
    05:00 +14°C° 0 mm 4 mps 697 mmHg 65%
    06:00 +15°C° 0 mm 4 mps 698 mmHg 63%
    07:00 +17°C° 0 mm 4 mps 698 mmHg 61%
    08:00 +18°C° 0 mm 4 mps 698 mmHg 58%
    09:00 +19°C° 0 mm 4 mps 698 mmHg 55%
    10:00 +20°C° 0 mm 5 mps 698 mmHg 52%
    11:00 +21°C° 0 mm 4 mps 698 mmHg 52%
    12:00 +22°C° 0 mm 4 mps 698 mmHg 51%
    13:00 +23°C° 0 mm 4 mps 697 mmHg 50%
    14:00 +23°C° 0 mm 4 mps 697 mmHg 50%
    15:00 +23°C° 0 mm 4 mps 697 mmHg 50%
    16:00 +23°C° 0 mm 4 mps 697 mmHg 51%
    17:00 +22°C° 0 mm 4 mps 698 mmHg 53%
    18:00 +21°C° 0 mm 4 mps 698 mmHg 56%
    19:00 +21°C° 0 mm 4 mps 699 mmHg 59%
    20:00 +20°C° 0 mm 3 mps 699 mmHg 62%
    21:00 +19°C° 0 mm 3 mps 699 mmHg 66%
    22:00 +18°C° 0 mm 3 mps 699 mmHg 70%
    23:00 +18°C° 0.1 mm 3 mps 698 mmHg 72%

    25 October, Thursday

    Time Temperature Precipitation Wind Pressure Humidity
    00:00 +17°C° 0.1 mm 3 mps 698 mmHg 74%
    01:00 +17°C° 0.1 mm 3 mps 698 mmHg 76%
    02:00 +17°C° 0 mm 3 mps 698 mmHg 78%
    03:00 +16°C° 0 mm 3 mps 697 mmHg 79%
    04:00 +16°C° 0 mm 3 mps 697 mmHg 80%
    05:00 +16°C° 0 mm 3 mps 698 mmHg 78%
    06:00 +17°C° 0 mm 3 mps 698 mmHg 76%
    07:00 +17°C° 0 mm 3 mps 698 mmHg 73%
    08:00 +18°C° 0 mm 4 mps 698 mmHg 67%
    09:00 +20°C° 0 mm 4 mps 698 mmHg 61%
    10:00 +21°C° 0 mm 4 mps 698 mmHg 55%
    11:00 +22°C° 0 mm 4 mps 698 mmHg 52%
    12:00 +23°C° 0 mm 4 mps 698 mmHg 48%
    13:00 +25°C° 0 mm 4 mps 698 mmHg 45%
    14:00 +23°C° 0 mm 4 mps 698 mmHg 45%
    15:00 +23°C° 0 mm 5 mps 698 mmHg 44%
    16:00 +23°C° 0 mm 5 mps 698 mmHg 44%
    17:00 +22°C° 0 mm 5 mps 698 mmHg 50%
    18:00 +21°C° 0 mm 4 mps 698 mmHg 55%
    19:00 +20°C° 0 mm 4 mps 699 mmHg 61%
    20:00 +20°C° 0 mm 4 mps 699 mmHg 65%
    21:00 +19°C° 0 mm 3 mps 699 mmHg 68%
    22:00 +18°C° 0 mm 3 mps 699 mmHg 72%
    23:00 +18°C° 0 mm 3 mps 699 mmHg 72%

    26 October, Friday

    Time Temperature Precipitation Wind Pressure Humidity
    00:00 +17°C° 0 mm 3 mps 699 mmHg 72%
    01:00 +17°C° 0 mm 3 mps 699 mmHg 72%
    02:00 +16°C° 0 mm 3 mps 699 mmHg 73%
    03:00 +16°C° 0 mm 3 mps 699 mmHg 75%
    04:00 +16°C° 0 mm 3 mps 699 mmHg 76%
    05:00 +16°C° 0 mm 3 mps 700 mmHg 73%
    06:00 +17°C° 0 mm 3 mps 700 mmHg 71%
    07:00 +18°C° 0 mm 2 mps 700 mmHg 68%
    08:00 +19°C° 0 mm 2 mps 700 mmHg 63%
    09:00 +21°C° 0 mm 2 mps 700 mmHg 57%
    10:00 +22°C° 0 mm 3 mps 700 mmHg 52%
    11:00 +24°C° 0 mm 3 mps 699 mmHg 48%
    12:00 +25°C° 0 mm 3 mps 699 mmHg 45%
    13:00 +26°C° 0 mm 3 mps 698 mmHg 41%
    14:00 +26°C° 0 mm 3 mps 698 mmHg 40%
    15:00 +26°C° 0 mm 3 mps 697 mmHg 40%
    16:00 +26°C° 0 mm 3 mps 697 mmHg 39%
    17:00 +25°C° 0 mm 3 mps 697 mmHg 44%
    18:00 +25°C° 0 mm 3 mps 698 mmHg 48%
    19:00 +24°C° 0 mm 3 mps 698 mmHg 52%
    20:00 +23°C° 0 mm 2 mps 698 mmHg 53%
    21:00 +23°C° 0 mm 2 mps 698 mmHg 53%
    22:00 +21°C° 0 mm 2 mps 698 mmHg 54%
    23:00 +21°C° 0 mm 2 mps 697 mmHg 54%
    Show more